Location: Bonny Doon Airfield
(37.0704°N, 122.1252°W)
Time: 02:12:52
(UTC-07:00)

Vanguard 3 - Visible Passes

Search period start: 16 July 2018 00:00
Search period end: 26 July 2018 00:00
Orbit: 508 x 3264 km, 33.3° (Epoch: 15 July)

Date Brightness Start Highest point End Pass type
(mag) Time Alt. Az. Time Alt. Az. Time Alt. Az.
16 Jul 9.4 00:26:15 10° W 00:26:48 12° W 00:26:48 12° W visible
16 Jul 8.1 20:55:14 10° WSW 21:05:49 63° S 21:11:41 10° E visible
16 Jul 7.4 23:10:53 10° W 23:17:07 50° SW 23:17:07 50° SW visible
17 Jul 7.6 21:54:52 10° W 22:04:02 65° S 22:07:23 25° ESE visible
18 Jul 9.2 00:10:10 10° W 00:11:58 17° WSW 00:11:58 17° WSW visible
18 Jul 7.4 22:54:25 10° W 23:01:58 51° SSW 23:02:13 50° S visible
19 Jul 7.9 21:38:05 10° W 21:48:14 66° S 21:52:27 20° ESE visible
19 Jul 9.0 23:54:00 10° W 23:57:01 21° WSW 23:57:01 21° WSW visible
20 Jul 7.7 22:37:50 10° W 22:46:10 48° SSW 22:47:15 44° S visible
21 Jul 8.2 21:21:11 10° W 21:32:20 66° SSW 21:37:28 16° ESE visible
21 Jul 8.9 23:37:43 10° W 23:42:02 23° WSW 23:42:02 23° WSW visible
22 Jul 8.0 22:21:09 10° W 22:30:17 46° SSW 22:32:15 36° SSE visible
23 Jul 8.5 21:04:12 10° W 21:16:22 64° SSW 21:22:27 13° ESE visible
23 Jul 8.9 23:21:20 10° W 23:27:02 24° SW 23:27:02 24° SW visible
24 Jul 8.4 22:04:21 10° W 22:14:18 44° SSW 22:17:15 29° SSE visible
25 Jul 8.7 20:47:06 10° W 21:00:18 63° SSW 21:07:28 10° ESE visible
25 Jul 9.1 23:04:52 10° W 23:11:32 23° SW 23:12:01 23° SW visible
